Lapse_Rate
3.5 3.5 3.4 3.5 3.7 3.8 4.0 4.3 4.5 4.5 5.6 5.8 5.9 5.9 6.0 4.7 4.2 4.0 3.5 3.1 3.5 3.3 3.6 4.7 6.1 7.9 7.2 7.0 6.6 5.6 7.5 6.6 5.5 6.5 6.8 5.7 7.1 6.9 6.5 6.5 6.4 6.5 6.5 6.3 6.1 5.8 6.1
3.6 3.6 3.6 3.6 3.6 3.9 4.3 4.4 4.7 5.4 5.6 5.6 5.8 5.7 4.9 4.1 3.8 3.5 2.9 2.8 2.9 3.1 3.6 4.5 5.7 7.3 6.7 6.5 7.1 7.0 5.6 4.8 5.6 6.1 6.2 6.7 6.7 7.1 6.6 6.5 6.5 6.4 6.5 6.5 6.5 6.4 6.5
3.5 3.6 3.5 3.5 3.8 4.5 4.6 4.9 5.2 5.0 5.3 5.4 5.3 5.0 4.0 3.7 3.2 2.8 2.5 2.5 2.6 3.0 3.9 5.0 6.1 7.2 6.8 6.9 6.9 7.0 5.0 5.2 5.6 6.1 5.4 4.7 5.3 6.4 6.8 6.5 6.9 6.6 6.5 6.5 6.5 6.5 6.5
3.5 3.8 4.0 4.2 4.7 5.2 4.8 4.9 4.8 5.3 5.4 4.6 4.1 3.6 3.2 2.7 2.7 2.5 2.1 2.0 2.9 3.2 5.0 6.2 6.8 7.0 6.8 7.4 6.5 6.5 5.9 4.9 5.2 5.3 5.0 5.2 5.5 6.5 6.7 6.8 6.6 6.5 6.5 6.5 6.5 6.5 6.5
3.8 4.0 4.3 4.8 5.0 4.8 4.4 4.4 5.2 5.2 4.5 3.8 3.2 2.7 2.3 2.3 2.6 2.2 2.1 2.5 3.5 4.7 7.2 6.8 5.9 7.0 6.3 6.9 6.2 5.5 4.6 5.2 4.6 5.4 5.5 6.7 6.5 6.2 6.6 6.5 6.5 6.5 6.5 6.5 6.5 6.5 6.5
4.0 4.2 4.7 5.2 4.8 4.9 4.5 5.1 4.8 4.2 3.7 3.0 2.6 2.3 2.1 2.0 2.1 2.3 2.8 3.4 4.0 5.9 6.2 6.9 6.6 6.1 5.8 5.6 6.0 5.4 5.8 6.1 6.7 5.6 6.2 6.5 5.8 6.5 6.5 6.5 6.5 6.5 6.5 6.5 6.5 6.5 6.5
4.7 4.8 4.7 4.3 4.3 4.6 3.8 3.7 3.6 3.1 2.7 2.5 2.1 1.9 1.9 2.1 2.5 4.3 3.5 1.4 3.9 3.9 3.9 5.9 6.0 6.5 5.6 5.9 6.1 6.6 5.9 5.4 6.0 6.5 6.5 6.1 6.5 6.5 6.5 6.5 6.5 6.5 6.5 6.5 6.5 6.5 6.5
4.6 4.2 4.0 3.8 3.8 3.5 3.4 3.2 2.9 2.7 2.5 2.2 1.9 1.7 1.8 2.1 3.0 4.7 3.6 5.7 6.8 6.5 6.6 6.2 5.1 5.3 5.2 6.3 6.3 6.2 4.9 5.8 6.0 6.5 6.5 6.5 6.5 6.5 6.5 6.5 6.5 6.5 6.5 6.5 6.5 6.5 6.5
3.6 3.6 3.3 2.8 3.2 3.2 2.8 2.6 2.4 2.4 2.3 2.2 2.1 1.9 2.0 2.9 3.4 2.5 3.8 5.7 6.3 6.0 6.5 5.7 6.1 6.6 6.3 5.9 6.3 6.5 4.7 4.9 6.5 6.5 6.5 6.5 6.5 6.5 6.5 6.5 6.5 6.5 6.5 6.5 6.5 6.5 6.5
3.1 3.1 2.5 2.6 3.1 2.6 2.2 2.3 2.5 2.6 2.4 2.3 2.4 2.4 2.7 3.3 3.0 2.2 4.8 5.0 4.6 5.1 6.5 6.5 6.5 6.2 6.2 5.0 6.4 6.7 5.2 5.9 6.4 6.5 6.5 6.5 6.5 6.5 6.5 6.5 6.5 6.5 6.5 6.5 6.5 6.5 6.5
3.0 2.8 3.0 2.9 2.6 2.3 2.1 2.3 2.4 2.4 2.3 2.3 2.4 2.7 4.4 4.4 2.8 4.2 5.2 4.4 5.4 5.7 6.5 6.5 6.5 7.3 6.0 5.8 6.2 6.4 5.7 5.5 6.5 6.5 6.5 6.5 6.5 6.5 6.5 6.5 6.5 6.5 6.5 6.5 6.5 6.5 6.5
2.6 2.9 2.8 2.6 2.4 2.0 2.1 2.2 2.4 2.4 2.4 2.4 2.6 3.3 5.1 3.5 2.3 3.5 3.1 3.7 4.7 6.5 6.5 6.5 6.4 6.5 6.5 6.3 6.5 6.6 6.5 6.4 6.9 6.5 6.5 6.5 6.4 6.5 6.5 6.5 6.5 6.5 6.5 6.5 6.5 6.5 6.5
2.6 2.5 2.5 2.3 2.3 2.3 2.5 2.5 2.6 2.6 2.4 2.5 2.7 4.0 4.1 3.8 2.3 1.9 1.8 3.6 6.5 6.5 6.5 6.5 6.5 6.5 6.5 6.5 6.5 6.5 6.5 6.5 6.5 6.5 6.5 6.5 6.5 6.5 6.5 6.5 6.5 6.5 6.5 6.5 6.5 6.5 6.5
2.3 2.4 2.3 2.3 2.4 2.4 2.4 2.6 2.8 2.7 2.7 2.7 2.9 3.9 3.0 3.4 1.1 0.5 2.9 6.0 6.5 6.5 6.5 6.5 6.5 6.5 6.5 6.5 6.5 6.5 6.5 6.5 6.5 6.5 6.5 6.5 6.5 6.5 6.5 6.5 6.5 6.5 6.5 6.5 6.5 6.5 6.5
2.2 2.3 2.4 2.4 2.6 2.7 2.8 2.8 2.8 3.0 3.0 2.6 2.3 1.1 1.5 1.3 0.5 1.2 2.5 6.5 6.5 6.5 6.5 6.5 6.5 6.5 6.5 6.5 6.5 6.5 6.5 6.5 6.5 6.5 6.5 6.5 6.5 6.5 6.5 6.5 6.5 6.5 6.5 6.5 6.5 6.5 6.5
2.7 2.8 2.6 2.5 2.8 2.7 2.8 3.0 3.1 3.2 3.6 2.7 0.1 2.3 2.2 0.1 -0.7 0.4 5.7 6.5 6.5 6.5 6.5 6.5 6.5 6.5 6.5 6.5 6.5 6.5 6.5 6.5 6.5 6.5 6.5 6.5 6.5 6.5 6.5 6.6 6.5 6.5 6.5 6.5 6.5 6.5 6.5
2.8 2.8 3.0 3.0 3.2 3.2 3.0 3.2 3.3 3.3 3.4 2.5 0.6 3.2 2.2 -1.2 -0.8 0.7 6.5 6.5 6.5 7.0 6.9 6.5 6.5 6.5 6.5 6.5 6.5 6.5 6.5 6.5 6.5 6.5 6.5 6.5 6.5 6.5 6.5 6.5 6.5 6.5 6.5 6.5 6.5 6.5 6.5
3.0 3.1 3.2 3.3 3.4 3.4 3.4 3.6 3.7 3.5 2.9 0.3 0.7 6.4 0.6 -2.5 4.9 5.5 6.5 6.5 7.0 6.6 7.0 6.5 6.5 6.5 6.5 6.5 6.5 6.5 6.5 6.5 6.8 6.5 6.5 6.5 6.5 6.5 6.5 6.5 6.5 6.5 6.5 6.5 6.5 6.5 6.5
3.2 3.5 3.6 3.6 3.5 3.7 3.9 3.9 3.8 3.5 2.7 -0.4 1.7 0.8 -0.3 -1.4 6.5 6.5 6.5 6.5 6.7 6.5 6.5 6.5 6.5 6.5 6.5 6.5 6.5 6.5 6.5 6.7 6.9 6.5 6.5 6.5 6.5 6.5 6.5 6.5 6.5 6.5 6.5 6.5 6.5 6.5 6.5
3.3 3.7 3.8 3.7 3.8 4.0 3.9 3.7 3.7 3.5 3.1 -1.6 0.6 6.5 -0.4 -1.1 -0.1 5.7 6.5 6.5 6.5 7.1 6.7 6.8 6.5 6.6 6.5 6.5 6.5 6.5 6.5 6.5 6.5 6.0 7.3 6.3 6.5 6.5 6.5 6.5 6.5 6.5 6.5 6.5 6.5 6.5 6.5
3.6 3.6 3.6 3.7 3.7 3.8 3.7 3.5 3.5 3.4 2.6 -1.1 -1.0 6.0 4.6 6.5 6.0 6.4 6.4 6.5 6.5 6.5 6.6 6.5 6.5 6.5 6.5 6.5 6.5 6.5 6.5 6.5 6.2 5.6 5.6 6.5 6.5 6.5 6.5 6.5 6.5 6.5 6.5 6.5 6.5 6.5 6.5
3.5 3.6 3.9 4.2 4.2 4.3 4.0 3.8 3.3 3.3 2.6 -1.6 1.4 2.0 0.4 3.7 5.0 6.0 6.5 6.5 6.5 6.5 6.5 6.5 6.5 6.5 6.5 6.5 6.5 6.5 6.5 6.5 6.5 6.5 6.5 6.5 6.5 6.5 6.5 6.5 6.5 6.5 6.5 6.5 6.5 6.5 6.5
3.6 3.9 4.2 4.1 4.2 4.4 4.4 4.0 3.1 2.9 2.2 -0.9 -0.4 0.5 1.1 5.0 3.6 6.5 6.5 6.5 6.5 6.4 3.4 2.0 5.3 6.5 6.5 6.0 2.4 4.3 2.2 0.4 3.5 6.3 6.5 6.5 6.5 6.5 6.5 6.5 6.5 6.5 6.5 6.5 6.5 6.5 6.5
3.9 4.1 4.2 4.1 4.3 4.7 4.7 4.3 4.0 2.6 0.5 -1.9 -2.0 -1.9 -0.8 6.5 6.5 6.5 5.0 3.0 6.5 4.6 6.1 -0.2 -1.1 4.8 2.4 -1.8 2.0 1.3 1.7 0.9 1.0 3.4 3.2 6.5 6.5 6.5 6.5 6.5 6.5 6.5 6.5 6.5 6.5 6.5 6.5
4.1 4.3 4.3 4.4 4.6 4.8 4.9 5.1 4.4 3.1 0.6 -3.3 -5.2 -2.9 -2.3 6.5 1.1 3.0 1.8 2.0 -1.2 -1.6 2.9 2.0 -1.5 -0.0 -4.2 -0.3 6.5 6.5 6.5 6.5 6.5 6.5 6.6 5.3 6.5 6.5 6.5 6.5 6.5 6.5 6.5 6.5 6.5 6.5 6.5
4.3 4.4 4.4 4.7 4.7 4.8 5.0 5.5 5.0 3.7 1.6 -5.1 -9.8 -8.6 -3.6 1.3 5.3 0.6 1.0 -2.2 6.4 6.5 7.1 0.9 0.9 -3.8 -0.2 5.5 6.5 6.5 6.5 6.5 6.5 6.5 6.4 6.5 6.5 6.5 6.5 6.5 6.5 6.5 6.5 5.5 5.4 6.5 6.5
4.2 4.4 4.6 4.8 4.6 4.7 5.3 5.7 5.2 4.3 2.3 -1.5 -7.4 -6.3 -2.7 0.1 -2.7 -3.8 2.8 4.6 -2.6 0.8 6.5 3.0 2.8 3.9 2.7 6.5 6.5 6.5 6.5 6.5 6.5 6.5 6.5 6.5 6.5 6.5 6.5 6.5 6.5 6.5 6.4 3.8 6.5 6.5 6.8
4.3 4.6 4.7 4.7 4.5 4.8 5.4 5.9 5.5 5.2 4.0 0.5 -3.5 -3.4 -2.8 -1.2 -2.3 -5.1 -3.5 0.4 -0.8 0.1 6.5 2.5 4.6 4.7 6.1 6.5 6.5 6.5 6.5 6.5 6.5 6.5 6.5 6.5 6.5 6.5 6.5 6.5 6.5 6.5 6.4 6.5 6.6 6.4 7.0
4.5 4.9 4.7 4.7 4.7 4.8 5.2 6.0 5.5 5.5 4.8 3.8 -1.5 -1.8 -2.7 -0.5 1.6 -5.8 -3.2 -3.1 -0.5 0.4 -0.7 -1.1 2.7 1.2 2.9 6.5 6.5 6.5 6.5 6.5 6.5 6.5 6.5 6.5 6.5 6.5 6.5 6.5 4.0 3.3 5.4 5.4 5.5 7.0 6.7
Wind_Speed
18 19 21 22 23 23 24 25 27 26 26 23 23 23 23 26 27 29 32 31 31 32 32 28 24 20 8 7 10 10 19 15 14 6 1 5 9 10 12 5 16 20 18 16 10 8 11
20 21 22 23 25 26 26 27 29 28 26 19 22 23 26 27 28 29 31 33 33 34 32 28 23 17 6 17 4 3 4 8 3 2 4 4 7 12 7 9 15 5 12 17 15 19 21
22 23 24 25 25 28 29 30 28 20 21 21 25 28 27 28 30 30 32 33 34 35 32 28 21 7 8 14 5 13 8 4 2 4 4 5 9 8 4 5 12 12 14 15 15 10 10
22 23 23 24 26 26 26 20 21 21 22 25 26 27 29 30 30 32 33 34 33 32 28 19 13 5 5 3 8 5 5 9 7 7 5 10 5 10 7 8 6 5 9 6 2 9 9
22 22 23 23 23 22 20 20 20 22 23 25 27 28 29 30 30 33 34 35 33 22 14 4 4 1 7 8 4 6 2 5 8 4 4 6 3 6 5 1 4 4 10 13 16 12 9
21 20 24 20 19 17 19 21 23 24 26 26 27 28 29 29 30 31 32 32 17 6 7 2 2 3 3 7 5 8 5 4 4 7 6 2 2 2 0 3 13 13 7 6 8 4 8
22 21 17 16 17 19 21 22 24 25 24 25 26 27 28 29 29 29 15 4 6 6 8 3 9 4 8 8 5 10 7 8 3 2 3 4 3 6 7 11 15 18 20 21 23 13 10
18 14 15 16 18 20 22 24 25 25 25 25 26 27 28 27 26 17 6 5 4 6 8 8 6 5 6 4 3 17 15 7 5 5 5 5 10 11 9 11 13 18 21 23 22 23 10
14 14 14 17 20 22 23 24 25 25 25 25 26 27 27 27 18 4 2 5 8 6 4 6 2 1 4 4 5 11 12 8 5 5 4 7 13 16 11 14 16 16 13 20 18 18 2
12 14 17 19 21 22 22 23 24 25 26 26 26 26 26 29 4 4 1 10 10 3 3 4 2 4 9 3 5 4 9 3 4 6 9 7 10 13 14 12 14 13 11 15 21 15 7
16 17 19 20 21 22 23 24 25 26 26 26 25 24 22 9 3 2 5 15 9 1 4 6 4 3 7 7 6 12 15 9 5 9 4 4 12 15 9 4 15 6 16 8 11 11 14
16 18 19 20 21 23 24 25 26 26 26 26 24 22 17 3 3 3 16 12 2 5 5 4 5 7 8 7 5 5 9 9 4 5 7 6 8 3 7 16 7 14 9 14 6 6 9
16 18 19 20 23 25 26 27 28 27 26 25 24 16 6 3 5 19 10 3 4 4 6 9 6 9 10 9 7 10 7 15 9 8 8 10 9 8 21 17 13 17 6 4 4 5 8
17 17 20 23 24 25 26 27 28 27 26 27 21 8 4 3 17 10 2 5 5 4 5 7 7 13 5 13 5 9 4 6 9 6 4 7 8 17 15 11 10 15 5 2 5 3 3
16 17 21 23 25 26 28 28 28 28 26 25 12 3 2 9 14 2 5 6 2 4 7 11 11 5 4 6 7 7 6 7 5 10 2 5 5 13 15 13 11 11 5 9 6 3 3
18 21 22 23 24 26 28 30 30 29 26 18 2 3 2 24 14 4 5 4 2 6 7 6 3 7 5 9 8 6 5 7 8 10 2 4 6 10 8 11 16 7 8 6 4 2 3
19 21 23 24 26 28 30 32 32 29 28 11 3 3 3 25 3 7 4 2 3 8 9 7 4 4 3 4 3 4 8 8 13 11 6 4 3 5 9 7 11 9 5 5 1 3 3
20 21 23 25 27 30 32 32 32 28 26 7 2 3 5 8 5 3 3 4 8 8 10 6 3 4 3 5 3 6 4 4 10 11 4 3 2 3 2 4 2 5 8 1 2 6 4
20 21 23 26 29 31 32 33 34 29 18 2 3 2 5 5 4 3 4 3 6 9 7 7 6 5 4 4 4 4 7 7 12 16 11 2 2 2 3 6 7 5 19 13 5 1 3
20 22 24 27 29 31 34 36 37 33 18 4 3 4 5 5 2 4 4 5 5 6 4 5 6 4 5 6 6 3 7 3 7 12 16 5 2 3 8 5 1 9 22 22 9 4 5
22 23 25 27 30 33 36 38 39 36 18 4 4 2 1 4 5 4 4 3 5 6 5 6 5 4 1 5 6 5 4 7 5 14 9 4 3 7 12 11 9 18 16 21 18 13 6
22 24 25 26 29 31 35 35 38 40 15 4 3 3 4 3 4 4 7 3 2 5 4 6 4 5 3 4 4 4 3 2 2 8 7 6 2 2 2 8 4 12 17 17 15 10 6
23 23 24 26 28 30 31 34 35 36 14 3 2 2 4 6 4 3 2 4 4 4 2 2 2 2 4 4 5 4 3 3 3 1 5 4 2 2 2 4 5 5 14 7 3 9 3
22 22 24 25 26 27 29 31 30 30 15 3 2 2 4 2 3 1 2 1 3 3 3 4 3 4 5 1 3 4 6 4 5 4 2 2 2 2 0 3 6 4 5 2 2 1 4
21 22 23 24 24 26 28 27 27 20 22 5 2 3 3 2 3 3 5 3 5 4 2 2 3 6 2 4 4 6 5 6 5 2 4 4 3 3 3 2 2 5 12 4 2 2 2
19 21 22 22 22 26 25 24 24 22 11 7 2 0 4 6 5 4 2 0 2 4 5 4 4 3 3 3 5 5 4 3 7 15 8 4 4 4 4 5 3 1 17 3 3 2 12
19 19 20 20 22 24 23 23 20 19 17 11 2 7 5 5 3 3 2 1 2 1 2 4 8 8 1 3 4 4 3 3 5 9 8 7 5 6 5 2 4 3 17 3 5 7 18
17 18 19 20 21 22 21 21 19 17 19 11 1 16 5 3 3 4 5 2 2 2 3 4 2 3 4 5 3 2 3 2 3 3 2 3 3 3 1 5 5 9 6 6 8 8 11
13 15 19 20 19 19 19 20 21 19 16 10 4 7 11 5 4 5 6 4 5 6 3 4 4 1 2 4 2 2 3 2 1 4 2 4 2 3 1 4 3 3 5 4 5 12 7
Wind_Direction
340 336 332 329 325 323 322 321 315 313 309 306 316 323 327 323 321 320 316 315 313 307 306 311 311 311 305 235 246 316 332 334 330 354 6 162 187 211 234 221 230 244 260 265 285 280 261
337 334 331 328 326 323 324 321 316 317 322 331 327 329 327 327 324 320 315 312 309 304 304 307 302 290 251 257 266 316 336 304 281 266 254 229 233 221 236 234 229 249 262 266 271 265 263
331 329 327 326 326 327 326 323 326 349 343 339 330 328 327 325 321 316 311 310 307 304 305 304 295 260 240 250 281 320 328 272 234 210 232 229 226 191 194 255 244 259 266 276 258 237 230
326 322 321 324 323 326 336 354 351 348 340 333 328 327 326 323 321 318 315 311 305 302 305 297 282 224 257 275 318 334 316 299 282 248 208 249 208 227 236 294 313 254 268 269 306 216 233
319 319 323 321 333 343 349 351 344 338 335 332 329 328 327 324 325 321 317 308 305 304 314 354 48 179 269 322 9 315 266 296 302 298 244 269 174 211 129 47 298 242 277 259 282 247 246
318 326 321 340 347 350 345 342 341 338 336 334 332 331 330 327 326 323 319 311 301 341 344 34 72 9 347 311 317 330 298 304 309 336 334 335 264 261 324 173 258 276 256 264 250 314 242
328 327 353 358 351 347 346 343 338 337 335 335 335 334 331 329 331 331 332 2 13 351 24 255 284 250 278 301 324 356 338 328 330 10 303 290 274 241 253 240 252 271 279 281 278 269 268
331 5 9 359 349 346 343 342 341 339 339 340 336 335 333 331 333 337 348 69 54 291 301 288 256 241 271 284 319 360 350 21 5 311 308 316 257 275 278 284 270 264 266 268 276 275 235
27 17 360 351 349 349 348 345 343 340 340 340 337 336 336 333 333 40 27 60 321 322 277 298 225 67 337 342 50 355 10 338 324 317 274 265 283 312 333 319 315 296 262 262 251 275 80
21 5 356 355 351 351 350 346 343 340 340 338 339 339 340 335 44 325 58 334 330 310 301 279 51 352 354 309 77 70 357 344 318 347 325 283 338 351 329 318 342 291 352 300 268 254 238
12 3 358 355 354 354 352 347 343 341 340 338 338 338 340 25 283 4 319 319 315 170 352 354 21 23 357 42 335 18 24 14 48 313 330 283 319 325 329 7 339 302 327 293 283 285 257
11 3 1 358 356 357 352 347 343 342 340 339 337 334 341 356 1 297 327 307 44 44 259 360 16 4 359 21 36 336 31 14 77 351 2 298 289 315 347 334 310 332 308 291 225 215 255
15 9 4 4 1 358 352 348 344 342 341 339 333 327 350 6 321 312 311 11 26 123 350 349 343 349 341 353 26 11 42 45 31 5 356 323 318 5 14 346 331 357 344 323 331 198 234
20 13 10 9 3 358 354 350 346 344 341 341 338 337 357 69 326 310 13 47 80 14 1 359 344 322 56 16 44 26 48 40 40 21 306 348 339 24 13 41 295 295 317 209 289 350 352
23 18 17 11 4 0 355 351 348 344 342 342 339 339 34 335 333 325 63 48 346 1 332 332 325 17 7 29 355 5 61 28 54 31 67 346 269 7 43 40 26 323 2 336 276 242 75
27 23 19 14 5 2 0 355 351 346 342 346 24 353 346 339 334 51 69 108 71 18 330 342 35 33 352 346 18 32 20 33 0 14 170 267 299 9 21 12 21 59 338 16 341 309 256
37 31 23 18 10 5 4 359 355 349 345 343 34 37 300 342 34 45 86 66 48 30 5 19 5 321 2 349 23 339 19 69 20 353 341 292 150 324 41 8 18 8 15 349 205 256 312
40 32 26 21 15 12 7 2 359 355 350 37 42 31 330 342 46 35 54 25 7 0 11 21 68 10 4 339 1 12 46 47 26 0 325 292 132 41 115 180 155 71 358 17 116 342 4
44 34 28 23 19 14 9 6 6 3 12 34 57 338 342 26 62 4 358 48 48 11 22 15 23 16 13 4 29 9 358 51 24 9 349 338 17 21 349 351 8 14 1 346 250 92 353
46 37 31 26 21 15 12 10 8 7 10 76 63 15 358 42 59 97 20 360 343 20 58 10 19 45 28 19 13 317 346 349 359 356 13 91 94 171 116 149 308 9 9 11 26 64 66
47 39 32 25 20 18 17 13 8 9 11 85 26 62 174 354 16 48 36 11 342 2 17 18 13 56 95 24 3 15 348 332 1 355 7 63 92 100 128 141 63 37 20 15 26 24 58
48 38 32 27 25 23 20 17 13 8 15 77 81 92 23 55 359 39 359 342 8 322 27 342 77 0 39 93 157 270 26 53 209 329 26 351 146 95 286 255 56 49 29 25 24 12 28
47 38 32 30 28 26 24 22 20 14 24 82 28 45 99 345 356 55 301 306 326 333 313 167 185 73 33 228 207 236 182 145 176 97 335 28 95 106 326 15 104 28 20 27 26 31 339
48 39 34 32 30 29 28 28 25 26 42 92 52 97 76 335 56 290 338 240 287 288 215 281 94 87 244 48 100 38 56 63 74 18 119 49 55 32 180 26 47 290 0 326 167 4 350
47 40 34 33 32 32 31 29 28 35 45 73 22 82 104 75 218 326 344 299 316 307 303 246 263 223 148 59 42 25 356 15 345 358 17 85 102 49 83 45 296 354 351 340 9 288 310
47 39 34 33 34 34 32 31 31 35 53 85 74 286 85 115 349 227 305 16 344 331 347 284 284 221 60 79 50 53 32 289 338 340 349 29 75 85 27 92 126 320 331 311 135 244 353
50 41 37 36 39 35 31 32 37 41 59 84 52 25 85 103 283 93 27 261 154 44 210 315 339 351 63 39 52 45 18 210 8 358 335 344 3 60 5 44 302 298 325 101 50 317 333
51 44 40 40 44 38 33 35 40 47 54 74 252 25 105 101 267 166 188 47 350 45 63 290 357 359 13 54 72 319 60 321 46 248 338 353 25 339 353 22 352 7 347 50 306 302 309
55 46 45 42 48 41 38 43 48 55 63 72 50 27 57 79 178 180 205 194 164 187 151 353 143 204 193 88 45 133 52 44 201 9 319 26 93 285 360 263 272 299 217 248 298 321 323